Time,TemperatureF,DewpointF,PressureIn,WindDirection,WindDirectionDegrees,WindSpeedMPH,WindSpeedGustMPH,Humidity,HourlyPrecipIn,Conditions,Clouds,dailyrainin,SoftwareType,DateUTC
2013-02-20 00:00:00,58.1,35.7,30.10,NNE,18,0.0,0.0,43,0.00,,,0.00,Wunderground v.1.15,2013-02-20 06:00:00,
2013-02-20 00:05:00,58.1,36.3,30.11,NNE,18,0.0,0.0,44,0.00,,,0.00,Wunderground v.1.15,2013-02-20 06:05:00,
2013-02-20 00:15:00,58.1,36.3,30.11,North,11,0.0,0.0,44,0.00,,,0.00,Wunderground v.1.15,2013-02-20 06:15:00,
2013-02-20 00:25:00,58.1,36.3,30.10,North,11,0.0,0.0,44,0.00,,,0.00,Wunderground v.1.15,2013-02-20 06:25:00,
2013-02-20 00:30:00,58.1,36.3,30.10,North,11,0.0,0.0,44,0.00,,,0.00,Wunderground v.1.15,2013-02-20 06:30:00,
2013-02-20 00:35:00,58.0,36.2,30.09,North,11,0.0,0.0,44,0.00,,,0.00,Wunderground v.1.15,2013-02-20 06:35:00,
2013-02-20 00:40:00,58.0,36.2,30.09,East,96,0.0,0.0,44,0.00,,,0.00,Wunderground v.1.15,2013-02-20 06:40:00,
2013-02-20 00:45:00,58.0,36.2,30.09,ESE,110,0.0,0.0,44,0.00,,,0.00,Wunderground v.1.15,2013-02-20 06:45:00,
2013-02-20 00:50:00,58.0,36.8,30.08,East,95,0.0,0.0,45,0.00,,,0.00,Wunderground v.1.15,2013-02-20 06:50:00,
2013-02-20 01:00:00,57.9,36.7,30.07,ENE,57,0.0,0.0,45,0.00,,,0.00,Wunderground v.1.15,2013-02-20 07:00:00,
2013-02-20 01:05:00,57.8,36.6,30.06,ENE,62,0.0,0.0,45,0.00,,,0.00,Wunderground v.1.15,2013-02-20 07:05:00,
2013-02-20 01:15:00,57.7,36.5,30.06,NE,41,0.0,0.0,45,0.00,,,0.00,Wunderground v.1.15,2013-02-20 07:15:00,
2013-02-20 01:20:00,57.7,37.0,30.07,NE,40,0.0,0.0,46,0.00,,,0.00,Wunderground v.1.15,2013-02-20 07:20:00,
2013-02-20 01:25:00,57.6,37.0,30.08,NE,43,0.0,0.0,46,0.00,,,0.00,Wunderground v.1.15,2013-02-20 07:25:00,
2013-02-20 01:30:00,57.6,36.4,30.08,SE,133,0.0,2.0,45,0.00,,,0.00,Wunderground v.1.15,2013-02-20 07:30:00,
2013-02-20 01:35:00,57.6,36.4,30.08,SE,126,0.0,2.0,45,0.00,,,0.00,Wunderground v.1.15,2013-02-20 07:35:00,
2013-02-20 01:40:00,57.6,36.4,30.07,East,92,0.0,0.0,45,0.00,,,0.00,Wunderground v.1.15,2013-02-20 07:40:00,
2013-02-20 01:45:00,57.5,36.9,30.07,East,88,0.0,0.0,46,0.00,,,0.00,Wunderground v.1.15,2013-02-20 07:45:00,
2013-02-20 01:50:00,57.4,36.8,30.07,South,175,0.0,0.0,46,0.00,,,0.00,Wunderground v.1.15,2013-02-20 07:50:00,
2013-02-20 01:55:00,57.3,36.7,30.07,ESE,115,0.0,0.0,46,0.00,,,0.00,Wunderground v.1.15,2013-02-20 07:55:00,
2013-02-20 02:05:00,57.3,37.2,30.07,SW,215,0.0,0.0,47,0.00,,,0.00,Wunderground v.1.15,2013-02-20 08:05:00,
2013-02-20 02:15:00,57.3,37.2,30.06,SW,215,0.0,0.0,47,0.00,,,0.00,Wunderground v.1.15,2013-02-20 08:15:00,
2013-02-20 02:20:00,57.2,36.6,30.07,ESE,112,0.0,0.0,46,0.00,,,0.00,Wunderground v.1.15,2013-02-20 08:20:00,
2013-02-20 02:25:00,57.3,36.7,30.07,ENE,61,0.0,0.0,46,0.00,,,0.00,Wunderground v.1.15,2013-02-20 08:25:00,
2013-02-20 02:30:00,57.3,36.1,30.06,South,191,0.0,0.0,45,0.00,,,0.00,Wunderground v.1.15,2013-02-20 08:30:00,
2013-02-20 02:35:00,57.3,36.7,30.03,East,83,1.0,2.0,46,0.00,,,0.00,Wunderground v.1.15,2013-02-20 08:35:00,
2013-02-20 02:40:00,57.2,36.6,30.03,NE,38,1.0,2.0,46,0.00,,,0.00,Wunderground v.1.15,2013-02-20 08:40:00,
2013-02-20 02:45:00,57.1,36.5,30.04,ENE,75,1.0,2.0,46,0.00,,,0.00,Wunderground v.1.15,2013-02-20 08:45:00,
2013-02-20 02:50:00,57.0,36.4,30.05,NE,45,1.0,1.0,46,0.00,,,0.00,Wunderground v.1.15,2013-02-20 08:50:00,
2013-02-20 02:55:00,56.9,36.3,30.06,ENE,57,0.0,1.0,46,0.00,,,0.00,Wunderground v.1.15,2013-02-20 08:55:00,
2013-02-20 03:00:00,56.9,36.3,30.06,ENE,58,0.0,1.0,46,0.00,,,0.00,Wunderground v.1.15,2013-02-20 09:00:00,
2013-02-20 03:05:00,56.9,36.3,30.06,ESE,115,0.0,1.0,46,0.00,,,0.00,Wunderground v.1.15,2013-02-20 09:05:00,
2013-02-20 03:15:00,56.9,36.3,30.05,East,80,0.0,1.0,46,0.00,,,0.00,Wunderground v.1.15,2013-02-20 09:15:00,
2013-02-20 03:20:00,56.8,36.2,30.05,East,79,0.0,0.0,46,0.00,,,0.00,Wunderground v.1.15,2013-02-20 09:20:00,
2013-02-20 03:25:00,56.8,35.7,30.06,ENE,74,0.0,0.0,45,0.00,,,0.00,Wunderground v.1.15,2013-02-20 09:25:00,
2013-02-20 03:30:00,56.9,35.8,30.07,NNE,24,0.0,1.0,45,0.00,,,0.00,Wunderground v.1.15,2013-02-20 09:30:00,
2013-02-20 03:35:00,56.9,35.8,30.06,East,84,0.0,1.0,45,0.00,,,0.00,Wunderground v.1.15,2013-02-20 09:35:00,
2013-02-20 03:45:00,56.8,36.2,30.04,East,98,2.0,2.0,46,0.00,,,0.00,Wunderground v.1.15,2013-02-20 09:45:00,
2013-02-20 03:50:00,56.7,36.7,30.04,East,95,2.0,2.0,47,0.00,,,0.00,Wunderground v.1.15,2013-02-20 09:50:00,
2013-02-20 03:55:00,56.7,37.2,30.04,ESE,110,1.0,2.0,48,0.00,,,0.00,Wunderground v.1.15,2013-02-20 09:55:00,
2013-02-20 04:00:00,56.6,37.6,30.03,ESE,103,1.0,3.0,49,0.00,,,0.00,Wunderground v.1.15,2013-02-20 10:00:00,
2013-02-20 04:05:00,56.3,37.4,30.04,ESE,109,2.0,3.0,49,0.00,,,0.00,Wunderground v.1.15,2013-02-20 10:05:00,
2013-02-20 04:15:00,56.0,37.1,30.04,ESE,112,1.0,3.0,49,0.00,,,0.00,Wunderground v.1.15,2013-02-20 10:15:00,
2013-02-20 04:20:00,55.9,37.0,30.03,East,85,1.0,1.0,49,0.00,,,0.00,Wunderground v.1.15,2013-02-20 10:20:00,
2013-02-20 04:25:00,55.8,37.4,30.04,East,80,0.0,1.0,50,0.00,,,0.00,Wunderground v.1.15,2013-02-20 10:25:00,
2013-02-20 04:30:00,55.7,37.3,30.04,SE,142,0.0,0.0,50,0.00,,,0.00,Wunderground v.1.15,2013-02-20 10:30:00,
2013-02-20 04:35:00,55.6,37.7,30.05,East,94,0.0,0.0,51,0.00,,,0.00,Wunderground v.1.15,2013-02-20 10:35:00,
2013-02-20 04:40:00,55.5,37.7,30.06,East,92,0.0,0.0,51,0.00,,,0.00,Wunderground v.1.15,2013-02-20 10:40:00,
2013-02-20 04:50:00,55.3,38.0,30.06,East,91,0.0,0.0,52,0.00,,,0.00,Wunderground v.1.15,2013-02-20 10:50:00,
2013-02-20 04:55:00,55.3,37.5,30.05,East,91,0.0,0.0,51,0.00,,,0.00,Wunderground v.1.15,2013-02-20 10:55:00,
2013-02-20 05:05:00,55.3,37.5,30.05,East,92,0.0,0.0,51,0.00,,,0.00,Wunderground v.1.15,2013-02-20 11:05:00,
2013-02-20 05:15:00,55.3,37.5,30.05,East,87,0.0,0.0,51,0.00,,,0.00,Wunderground v.1.15,2013-02-20 11:15:00,
2013-02-20 05:25:00,55.3,38.0,30.06,East,93,0.0,0.0,52,0.00,,,0.00,Wunderground v.1.15,2013-02-20 11:25:00,
2013-02-20 05:30:00,55.2,37.9,30.06,East,93,0.0,0.0,52,0.00,,,0.00,Wunderground v.1.15,2013-02-20 11:30:00,
2013-02-20 05:35:00,55.2,38.4,30.05,East,92,0.0,0.0,53,0.00,,,0.00,Wunderground v.1.15,2013-02-20 11:35:00,
2013-02-20 05:40:00,55.1,37.8,30.04,NE,56,0.0,0.0,52,0.00,,,0.00,Wunderground v.1.15,2013-02-20 11:40:00,
2013-02-20 05:45:00,55.0,38.2,30.03,ENE,57,0.0,0.0,53,0.00,,,0.00,Wunderground v.1.15,2013-02-20 11:45:00,
2013-02-20 05:55:00,55.0,38.2,30.01,ESE,104,1.0,1.0,53,0.00,,,0.00,Wunderground v.1.15,2013-02-20 11:55:00,
2013-02-20 06:00:00,54.9,38.1,30.00,East,88,1.0,1.0,53,0.00,,,0.00,Wunderground v.1.15,2013-02-20 12:00:00,
2013-02-20 06:05:00,54.9,38.1,30.00,ESE,103,1.0,2.0,53,0.00,,,0.00,Wunderground v.1.15,2013-02-20 12:05:00,
2013-02-20 06:15:00,54.8,38.9,29.99,ENE,78,2.0,2.0,55,0.00,,,0.00,Wunderground v.1.15,2013-02-20 12:15:00,
2013-02-20 06:25:00,54.7,39.8,29.99,North,360,3.0,3.0,57,0.00,,,0.00,Wunderground v.1.15,2013-02-20 12:25:00,
2013-02-20 06:35:00,54.6,39.7,29.99,East,97,2.0,3.0,57,0.00,,,0.00,Wunderground v.1.15,2013-02-20 12:35:00,
2013-02-20 06:40:00,54.6,40.1,29.98,ENE,67,2.0,2.0,58,0.00,,,0.00,Wunderground v.1.15,2013-02-20 12:40:00,
2013-02-20 06:45:00,54.6,40.1,29.98,ESE,103,2.0,3.0,58,0.00,,,0.00,Wunderground v.1.15,2013-02-20 12:45:00,
2013-02-20 06:50:00,54.5,40.5,29.97,ENE,74,2.0,2.0,59,0.00,,,0.00,Wunderground v.1.15,2013-02-20 12:50:00,
2013-02-20 06:55:00,54.4,40.4,29.96,East,80,2.0,3.0,59,0.00,,,0.00,Wunderground v.1.15,2013-02-20 12:55:00,
2013-02-20 07:00:00,54.3,40.7,29.97,East,92,2.0,2.0,60,0.00,,,0.00,Wunderground v.1.15,2013-02-20 13:00:00,
2013-02-20 07:05:00,54.2,40.6,29.98,East,79,2.0,3.0,60,0.00,,,0.00,Wunderground v.1.15,2013-02-20 13:05:00,
2013-02-20 07:15:00,54.1,40.5,29.98,ENE,67,1.0,1.0,60,0.00,,,0.00,Wunderground v.1.15,2013-02-20 13:15:00,
2013-02-20 07:20:00,54.0,40.8,29.97,ENE,71,1.0,4.0,61,0.00,,,0.00,Wunderground v.1.15,2013-02-20 13:20:00,
2013-02-20 07:25:00,54.0,40.4,29.97,ENE,58,2.0,4.0,60,0.00,,,0.00,Wunderground v.1.15,2013-02-20 13:25:00,
2013-02-20 07:30:00,53.9,40.3,29.96,ENE,77,2.0,2.0,60,0.00,,,0.00,Wunderground v.1.15,2013-02-20 13:30:00,
2013-02-20 07:40:00,53.8,40.7,29.97,ENE,57,2.0,2.0,61,0.00,,,0.00,Wunderground v.1.15,2013-02-20 13:40:00,
2013-02-20 07:45:00,53.8,40.7,29.98,ENE,63,2.0,2.0,61,0.00,,,0.00,Wunderground v.1.15,2013-02-20 13:45:00,
2013-02-20 07:50:00,53.8,40.7,29.99,ENE,69,1.0,1.0,61,0.00,,,0.00,Wunderground v.1.15,2013-02-20 13:50:00,
2013-02-20 07:55:00,53.8,40.7,29.99,NE,53,1.0,1.0,61,0.00,,,0.00,Wunderground v.1.15,2013-02-20 13:55:00,
2013-02-20 08:00:00,53.9,40.8,29.99,NE,54,0.0,0.0,61,0.00,,,0.00,Wunderground v.1.15,2013-02-20 14:00:00,
2013-02-20 08:05:00,53.9,41.2,29.99,ENE,75,0.0,2.0,62,0.00,,,0.00,Wunderground v.1.15,2013-02-20 14:05:00,
2013-02-20 08:15:00,54.0,41.3,29.97,ENE,71,1.0,1.0,62,0.00,,,0.00,Wunderground v.1.15,2013-02-20 14:15:00,
2013-02-20 08:20:00,53.9,41.6,29.97,ENE,65,1.0,2.0,63,0.00,,,0.00,Wunderground v.1.15,2013-02-20 14:20:00,
2013-02-20 08:25:00,53.9,42.0,29.97,East,86,2.0,2.0,64,0.00,,,0.00,Wunderground v.1.15,2013-02-20 14:25:00,
2013-02-20 08:30:00,53.9,42.0,29.98,ENE,74,1.0,1.0,64,0.00,,,0.00,Wunderground v.1.15,2013-02-20 14:30:00,
2013-02-20 08:35:00,53.9,42.0,29.98,ENE,78,1.0,1.0,64,0.00,,,0.00,Wunderground v.1.15,2013-02-20 14:35:00,
2013-02-20 08:45:00,54.1,42.6,29.98,SE,129,1.0,1.0,65,0.00,,,0.00,Wunderground v.1.15,2013-02-20 14:45:00,
2013-02-20 08:50:00,54.1,42.6,29.99,ESE,113,1.0,1.0,65,0.00,,,0.00,Wunderground v.1.15,2013-02-20 14:50:00,
2013-02-20 08:55:00,54.2,42.7,29.99,East,86,0.0,1.0,65,0.00,,,0.00,Wunderground v.1.15,2013-02-20 14:55:00,
2013-02-20 09:00:00,54.3,43.2,30.00,SE,130,0.0,1.0,66,0.00,,,0.00,Wunderground v.1.15,2013-02-20 15:00:00,
2013-02-20 09:05:00,54.4,43.3,30.00,ESE,111,0.0,1.0,66,0.00,,,0.00,Wunderground v.1.15,2013-02-20 15:05:00,
2013-02-20 09:15:00,54.5,43.8,30.00,East,80,0.0,0.0,67,0.00,,,0.00,Wunderground v.1.15,2013-02-20 15:15:00,
2013-02-20 09:20:00,54.6,43.9,30.01,ENE,78,0.0,0.0,67,0.00,,,0.00,Wunderground v.1.15,2013-02-20 15:20:00,
2013-02-20 09:25:00,54.7,44.0,30.02,ENE,78,0.0,0.0,67,0.00,,,0.00,Wunderground v.1.15,2013-02-20 15:25:00,
2013-02-20 09:30:00,54.7,44.0,30.02,ENE,78,0.0,0.0,67,0.00,,,0.00,Wunderground v.1.15,2013-02-20 15:30:00,
2013-02-20 09:35:00,54.8,44.4,30.01,ENE,78,0.0,0.0,68,0.00,,,0.00,Wunderground v.1.15,2013-02-20 15:35:00,
2013-02-20 09:40:00,54.8,44.0,30.01,ENE,78,0.0,0.0,67,0.00,,,0.00,Wunderground v.1.15,2013-02-20 15:40:00,
2013-02-20 09:45:00,54.8,44.0,30.01,ENE,78,0.0,0.0,67,0.00,,,0.00,Wunderground v.1.15,2013-02-20 15:45:00,
2013-02-20 09:50:00,54.8,44.0,30.01,ENE,78,0.0,0.0,67,0.00,,,0.00,Wunderground v.1.15,2013-02-20 15:50:00,
2013-02-20 09:55:00,54.8,44.0,30.01,ENE,78,0.0,0.0,67,0.00,,,0.00,Wunderground v.1.15,2013-02-20 15:55:00,
2013-02-20 10:00:00,54.8,44.4,30.01,ENE,78,0.0,0.0,68,0.00,,,0.00,Wunderground v.1.15,2013-02-20 16:00:00,
2013-02-20 10:05:00,54.8,44.4,30.00,East,90,0.0,1.0,68,0.00,,,0.00,Wunderground v.1.15,2013-02-20 16:05:00,
2013-02-20 10:15:00,54.8,45.2,29.99,SSE,155,0.0,1.0,70,0.00,,,0.00,Wunderground v.1.15,2013-02-20 16:15:00,
2013-02-20 10:25:00,54.7,45.8,29.99,East,99,1.0,1.0,72,0.00,,,0.00,Wunderground v.1.15,2013-02-20 16:25:00,
2013-02-20 10:30:00,54.8,45.9,29.98,East,79,1.0,2.0,72,0.00,,,0.00,Wunderground v.1.15,2013-02-20 16:30:00,
2013-02-20 10:35:00,55.1,45.9,29.98,East,98,1.0,3.0,71,0.00,,,0.00,Wunderground v.1.15,2013-02-20 16:35:00,
2013-02-20 10:40:00,55.1,46.2,29.98,East,92,1.0,1.0,72,0.00,,,0.00,Wunderground v.1.15,2013-02-20 16:40:00,
2013-02-20 10:45:00,55.0,46.1,29.98,ENE,73,1.0,1.0,72,0.00,,,0.00,Wunderground v.1.15,2013-02-20 16:45:00,
2013-02-20 10:50:00,54.8,46.7,29.97,ESE,105,1.0,1.0,74,0.00,,,0.00,Wunderground v.1.15,2013-02-20 16:50:00,
2013-02-20 10:55:00,54.7,46.9,29.97,NE,49,1.0,5.0,75,0.00,,,0.00,Wunderground v.1.15,2013-02-20 16:55:00,
2013-02-20 11:00:00,54.6,46.8,29.97,East,90,2.0,2.0,75,0.00,,,0.00,Wunderground v.1.15,2013-02-20 17:00:00,
2013-02-20 11:05:00,54.9,47.1,29.96,ESE,118,1.0,2.0,75,0.00,,,0.00,Wunderground v.1.15,2013-02-20 17:05:00,
2013-02-20 11:15:00,55.4,48.0,29.95,NE,52,1.0,2.0,76,0.00,,,0.00,Wunderground v.1.15,2013-02-20 17:15:00,
2013-02-20 11:20:00,55.5,48.1,29.95,ESE,111,1.0,1.0,76,0.00,,,0.00,Wunderground v.1.15,2013-02-20 17:20:00,
2013-02-20 11:30:00,55.6,48.5,29.95,ESE,109,1.0,1.0,77,0.00,,,0.00,Wunderground v.1.15,2013-02-20 17:30:00,
2013-02-20 11:35:00,55.7,48.9,29.94,SE,127,1.0,1.0,78,0.00,,,0.00,Wunderground v.1.15,2013-02-20 17:35:00,
2013-02-20 11:40:00,55.9,49.1,29.94,SE,130,0.0,0.0,78,0.00,,,0.00,Wunderground v.1.15,2013-02-20 17:40:00,
2013-02-20 11:45:00,56.0,49.2,29.94,East,98,0.0,1.0,78,0.00,,,0.00,Wunderground v.1.15,2013-02-20 17:45:00,
2013-02-20 11:50:00,56.2,49.4,29.94,SE,130,0.0,0.0,78,0.00,,,0.00,Wunderground v.1.15,2013-02-20 17:50:00,
2013-02-20 11:55:00,56.3,49.5,29.94,ENE,63,1.0,1.0,78,0.00,,,0.00,Wunderground v.1.15,2013-02-20 17:55:00,
2013-02-20 12:05:00,56.3,49.9,29.94,NE,45,1.0,1.0,79,0.00,,,0.00,Wunderground v.1.15,2013-02-20 18:05:00,
2013-02-20 12:15:00,56.4,50.0,29.93,ESE,115,0.0,1.0,79,0.00,,,0.00,Wunderground v.1.15,2013-02-20 18:15:00,
2013-02-20 12:20:00,56.4,50.3,29.93,ENE,57,1.0,1.0,80,0.00,,,0.00,Wunderground v.1.15,2013-02-20 18:20:00,
2013-02-20 12:25:00,56.5,50.1,29.93,ENE,57,0.0,2.0,79,0.00,,,0.00,Wunderground v.1.15,2013-02-20 18:25:00,
2013-02-20 12:35:00,56.7,50.3,29.92,ESE,114,0.0,0.0,79,0.00,,,0.00,Wunderground v.1.15,2013-02-20 18:35:00,
2013-02-20 12:40:00,56.9,50.5,29.91,West,268,0.0,0.0,79,0.00,,,0.00,Wunderground v.1.15,2013-02-20 18:40:00,
2013-02-20 12:45:00,57.0,50.5,29.90,East,99,1.0,1.0,79,0.00,,,0.00,Wunderground v.1.15,2013-02-20 18:45:00,
2013-02-20 12:50:00,57.2,50.7,29.90,ENE,77,1.0,1.0,79,0.00,,,0.00,Wunderground v.1.15,2013-02-20 18:50:00,
2013-02-20 12:55:00,57.3,50.8,29.90,ENE,77,0.0,1.0,79,0.00,,,0.00,Wunderground v.1.15,2013-02-20 18:55:00,
2013-02-20 13:00:00,57.4,50.9,29.90,ENE,73,0.0,0.0,79,0.00,,,0.00,Wunderground v.1.15,2013-02-20 19:00:00,
2013-02-20 13:05:00,57.4,50.9,29.89,ENE,70,0.0,0.0,79,0.00,,,0.00,Wunderground v.1.15,2013-02-20 19:05:00,
2013-02-20 13:15:00,57.5,51.0,29.89,SE,138,0.0,0.0,79,0.00,,,0.00,Wunderground v.1.15,2013-02-20 19:15:00,
2013-02-20 13:20:00,57.7,51.2,29.89,ESE,118,0.0,0.0,79,0.00,,,0.00,Wunderground v.1.15,2013-02-20 19:20:00,
2013-02-20 13:25:00,57.8,51.0,29.88,ENE,74,0.0,2.0,78,0.00,,,0.00,Wunderground v.1.15,2013-02-20 19:25:00,
2013-02-20 13:30:00,57.8,51.0,29.88,ESE,102,0.0,0.0,78,0.00,,,0.00,Wunderground v.1.15,2013-02-20 19:30:00,
2013-02-20 13:40:00,58.0,51.2,29.86,East,91,0.0,0.0,78,0.00,,,0.00,Wunderground v.1.15,2013-02-20 19:40:00,
2013-02-20 13:45:00,58.0,51.2,29.86,East,86,0.0,2.0,78,0.00,,,0.00,Wunderground v.1.15,2013-02-20 19:45:00,
2013-02-20 13:50:00,58.1,51.3,29.86,ESE,109,0.0,0.0,78,0.00,,,0.00,Wunderground v.1.15,2013-02-20 19:50:00,
2013-02-20 13:55:00,58.1,51.3,29.86,East,94,0.0,0.0,78,0.00,,,0.00,Wunderground v.1.15,2013-02-20 19:55:00,
2013-02-20 14:00:00,58.2,51.4,29.85,ESE,115,0.0,0.0,78,0.00,,,0.00,Wunderground v.1.15,2013-02-20 20:00:00,
2013-02-20 14:05:00,58.3,51.5,29.84,ESE,109,0.0,0.0,78,0.00,,,0.00,Wunderground v.1.15,2013-02-20 20:05:00,
2013-02-20 14:15:00,58.4,51.6,29.84,East,82,0.0,0.0,78,0.00,,,0.00,Wunderground v.1.15,2013-02-20 20:15:00,
2013-02-20 14:20:00,58.5,51.7,29.83,East,82,0.0,0.0,78,0.00,,,0.00,Wunderground v.1.15,2013-02-20 20:20:00,
2013-02-20 14:25:00,58.6,51.8,29.83,East,82,0.0,0.0,78,0.00,,,0.00,Wunderground v.1.15,2013-02-20 20:25:00,
2013-02-20 14:30:00,58.7,52.2,29.83,East,82,0.0,0.0,79,0.00,,,0.00,Wunderground v.1.15,2013-02-20 20:30:00,
2013-02-20 14:35:00,58.8,52.3,29.83,ENE,72,0.0,0.0,79,0.00,,,0.00,Wunderground v.1.15,2013-02-20 20:35:00,
2013-02-20 14:45:00,58.8,52.6,29.82,East,80,0.0,0.0,80,0.00,,,0.00,Wunderground v.1.15,2013-02-20 20:45:00,
2013-02-20 14:50:00,58.7,52.9,29.82,East,80,0.0,0.0,81,0.00,,,0.00,Wunderground v.1.15,2013-02-20 20:50:00,
2013-02-20 14:55:00,58.7,53.2,29.82,East,79,0.0,0.0,82,0.00,,,0.00,Wunderground v.1.15,2013-02-20 20:55:00,
2013-02-20 15:00:00,58.6,53.5,29.82,East,80,0.0,0.0,83,0.00,,,0.00,Wunderground v.1.15,2013-02-20 21:00:00,
2013-02-20 15:05:00,58.4,53.6,29.82,East,80,0.0,0.0,84,0.00,,,0.00,Wunderground v.1.15,2013-02-20 21:05:00,
2013-02-20 15:15:00,58.2,53.7,29.82,East,88,0.0,0.0,85,0.00,,,0.00,Wunderground v.1.15,2013-02-20 21:15:00,
2013-02-20 15:20:00,58.2,54.0,29.82,East,80,0.0,0.0,86,0.00,,,0.00,Wunderground v.1.15,2013-02-20 21:20:00,
2013-02-20 15:25:00,58.2,54.0,29.82,East,79,0.0,0.0,86,0.00,,,0.00,Wunderground v.1.15,2013-02-20 21:25:00,
2013-02-20 15:30:00,58.2,54.3,29.81,ENE,72,0.0,0.0,87,0.00,,,0.00,Wunderground v.1.15,2013-02-20 21:30:00,
2013-02-20 15:35:00,58.2,54.7,29.81,ENE,72,0.0,0.0,88,0.00,,,0.01,Wunderground v.1.15,2013-02-20 21:35:00,
2013-02-20 15:40:00,58.2,55.0,29.81,ENE,72,0.0,0.0,89,0.00,,,0.01,Wunderground v.1.15,2013-02-20 21:40:00,
2013-02-20 15:50:00,58.3,55.4,29.81,ENE,71,0.0,0.0,90,0.00,,,0.01,Wunderground v.1.15,2013-02-20 21:50:00,
2013-02-20 15:55:00,58.5,55.6,29.80,ENE,71,0.0,0.0,90,0.00,,,0.01,Wunderground v.1.15,2013-02-20 21:55:00,
2013-02-20 16:00:00,58.6,56.0,29.80,ESE,114,0.0,0.0,91,0.00,,,0.01,Wunderground v.1.15,2013-02-20 22:00:00,
2013-02-20 16:05:00,58.6,56.0,29.80,East,90,0.0,0.0,91,0.00,,,0.01,Wunderground v.1.15,2013-02-20 22:05:00,
2013-02-20 16:15:00,58.7,56.1,29.80,East,90,0.0,0.0,91,0.00,,,0.01,Wunderground v.1.15,2013-02-20 22:15:00,
2013-02-20 16:20:00,58.7,56.4,29.80,East,94,0.0,0.0,92,0.00,,,0.01,Wunderground v.1.15,2013-02-20 22:20:00,
2013-02-20 16:25:00,58.7,56.4,29.79,East,94,0.0,0.0,92,0.00,,,0.01,Wunderground v.1.15,2013-02-20 22:25:00,
2013-02-20 16:30:00,58.7,56.4,29.79,ENE,76,0.0,2.0,92,0.00,,,0.01,Wunderground v.1.15,2013-02-20 22:30:00,
2013-02-20 16:35:00,58.6,56.3,29.78,ENE,65,0.0,2.0,92,0.00,,,0.01,Wunderground v.1.15,2013-02-20 22:35:00,
2013-02-20 16:40:00,58.6,56.6,29.78,East,79,0.0,0.0,93,0.00,,,0.02,Wunderground v.1.15,2013-02-20 22:40:00,
2013-02-20 16:45:00,58.6,56.6,29.78,East,97,1.0,1.0,93,0.00,,,0.02,Wunderground v.1.15,2013-02-20 22:45:00,
2013-02-20 16:55:00,58.7,56.7,29.77,East,81,0.0,1.0,93,0.00,,,0.02,Wunderground v.1.15,2013-02-20 22:55:00,
2013-02-20 17:00:00,58.8,56.8,29.77,East,82,1.0,1.0,93,0.00,,,0.02,Wunderground v.1.15,2013-02-20 23:00:00,
2013-02-20 17:05:00,58.9,57.2,29.77,ENE,74,1.0,1.0,94,0.00,,,0.02,Wunderground v.1.15,2013-02-20 23:05:00,
2013-02-20 17:15:00,59.0,57.3,29.76,ENE,63,1.0,2.0,94,0.00,,,0.02,Wunderground v.1.15,2013-02-20 23:15:00,
2013-02-20 17:20:00,59.0,57.3,29.76,ENE,57,1.0,2.0,94,0.00,,,0.02,Wunderground v.1.15,2013-02-20 23:20:00,
2013-02-20 17:30:00,59.0,57.3,29.76,ENE,71,1.0,1.0,94,0.00,,,0.02,Wunderground v.1.15,2013-02-20 23:30:00,
2013-02-20 17:35:00,59.0,57.3,29.76,East,80,1.0,3.0,94,0.00,,,0.02,Wunderground v.1.15,2013-02-20 23:35:00,
2013-02-20 17:40:00,59.0,57.3,29.76,East,90,1.0,2.0,94,0.00,,,0.02,Wunderground v.1.15,2013-02-20 23:40:00,
2013-02-20 17:45:00,59.0,57.3,29.75,East,98,1.0,2.0,94,0.00,,,0.02,Wunderground v.1.15,2013-02-20 23:45:00,
2013-02-20 17:50:00,59.0,57.3,29.75,East,92,2.0,2.0,94,0.00,,,0.02,Wunderground v.1.15,2013-02-20 23:50:00,
2013-02-20 17:55:00,59.0,57.3,29.75,ESE,121,2.0,2.0,94,0.00,,,0.02,Wunderground v.1.15,2013-02-20 23:55:00,
2013-02-20 18:00:00,59.0,57.6,29.75,East,94,2.0,2.0,95,0.00,,,0.02,Wunderground v.1.15,2013-02-21 00:00:00,
2013-02-20 18:05:00,59.0,57.6,29.75,East,88,1.0,2.0,95,0.00,,,0.02,Wunderground v.1.15,2013-02-21 00:05:00,
2013-02-20 18:15:00,59.0,57.6,29.76,SE,124,1.0,1.0,95,0.00,,,0.02,Wunderground v.1.15,2013-02-21 00:15:00,
2013-02-20 18:20:00,59.0,57.6,29.76,ENE,69,1.0,1.0,95,0.00,,,0.02,Wunderground v.1.15,2013-02-21 00:20:00,
2013-02-20 18:25:00,59.0,57.6,29.76,SE,130,1.0,2.0,95,0.00,,,0.02,Wunderground v.1.15,2013-02-21 00:25:00,
2013-02-20 18:35:00,59.0,57.6,29.76,ENE,65,1.0,1.0,95,0.00,,,0.02,Wunderground v.1.15,2013-02-21 00:35:00,
2013-02-20 18:40:00,59.1,57.7,29.76,SE,126,1.0,1.0,95,0.00,,,0.02,Wunderground v.1.15,2013-02-21 00:40:00,
2013-02-20 18:45:00,59.2,57.8,29.75,ENE,69,1.0,1.0,95,0.00,,,0.02,Wunderground v.1.15,2013-02-21 00:45:00,
2013-02-20 18:50:00,59.4,58.0,29.75,ESE,114,1.0,1.0,95,0.00,,,0.02,Wunderground v.1.15,2013-02-21 00:50:00,
2013-02-20 18:55:00,59.5,58.1,29.75,East,88,1.0,1.0,95,0.00,,,0.02,Wunderground v.1.15,2013-02-21 00:55:00,
2013-02-20 19:00:00,59.5,58.1,29.75,East,84,1.0,1.0,95,0.00,,,0.02,Wunderground v.1.15,2013-02-21 01:00:00,
2013-02-20 19:05:00,59.5,58.1,29.75,ESE,114,1.0,2.0,95,0.00,,,0.02,Wunderground v.1.15,2013-02-21 01:05:00,
2013-02-20 19:15:00,59.6,58.2,29.74,ENE,59,1.0,1.0,95,0.00,,,0.02,Wunderground v.1.15,2013-02-21 01:15:00,
2013-02-20 19:20:00,59.7,58.3,29.74,East,90,1.0,1.0,95,0.00,,,0.02,Wunderground v.1.15,2013-02-21 01:20:00,
2013-02-20 19:25:00,59.7,58.3,29.73,East,93,2.0,2.0,95,0.00,,,0.02,Wunderground v.1.15,2013-02-21 01:25:00,
2013-02-20 19:30:00,59.7,58.3,29.73,East,94,2.0,2.0,95,0.00,,,0.02,Wunderground v.1.15,2013-02-21 01:30:00,
2013-02-20 19:40:00,59.7,58.3,29.73,East,90,1.0,1.0,95,0.00,,,0.02,Wunderground v.1.15,2013-02-21 01:40:00,
2013-02-20 19:45:00,59.8,58.4,29.74,East,84,1.0,1.0,95,0.00,,,0.02,Wunderground v.1.15,2013-02-21 01:45:00,
2013-02-20 19:50:00,59.9,58.5,29.73,ESE,121,1.0,2.0,95,0.00,,,0.02,Wunderground v.1.15,2013-02-21 01:50:00,
2013-02-20 19:55:00,60.0,58.6,29.73,East,80,1.0,3.0,95,0.00,,,0.02,Wunderground v.1.15,2013-02-21 01:55:00,
2013-02-20 20:00:00,60.1,58.7,29.73,ESE,114,2.0,2.0,95,0.00,,,0.02,Wunderground v.1.15,2013-02-21 02:00:00,
2013-02-20 20:05:00,60.2,58.8,29.73,East,83,2.0,2.0,95,0.00,,,0.02,Wunderground v.1.15,2013-02-21 02:05:00,
2013-02-20 20:15:00,60.4,59.0,29.74,NE,53,1.0,2.0,95,0.00,,,0.02,Wunderground v.1.15,2013-02-21 02:15:00,
2013-02-20 20:20:00,60.5,59.1,29.73,ESE,117,1.0,1.0,95,0.00,,,0.02,Wunderground v.1.15,2013-02-21 02:20:00,
2013-02-20 20:25:00,60.6,59.2,29.73,SE,126,2.0,2.0,95,0.00,,,0.02,Wunderground v.1.15,2013-02-21 02:25:00,
2013-02-20 20:30:00,60.7,59.3,29.73,ESE,115,2.0,2.0,95,0.00,,,0.02,Wunderground v.1.15,2013-02-21 02:30:00,
2013-02-20 20:35:00,60.8,59.4,29.73,ENE,72,1.0,2.0,95,0.00,,,0.02,Wunderground v.1.15,2013-02-21 02:35:00,
2013-02-20 20:45:00,61.0,59.6,29.72,East,85,2.0,2.0,95,0.00,,,0.02,Wunderground v.1.15,2013-02-21 02:45:00,
2013-02-20 20:50:00,61.1,59.7,29.72,ENE,64,2.0,3.0,95,0.00,,,0.02,Wunderground v.1.15,2013-02-21 02:50:00,
2013-02-20 20:55:00,61.1,59.7,29.72,East,99,2.0,3.0,95,0.00,,,0.02,Wunderground v.1.15,2013-02-21 02:55:00,
2013-02-20 21:00:00,61.1,59.7,29.72,SSE,162,2.0,2.0,95,0.00,,,0.02,Wunderground v.1.15,2013-02-21 03:00:00,
2013-02-20 21:05:00,61.1,59.7,29.71,ESE,109,1.0,2.0,95,0.00,,,0.02,Wunderground v.1.15,2013-02-21 03:05:00,
2013-02-20 21:15:00,61.1,59.7,29.71,ESE,106,1.0,1.0,95,0.00,,,0.02,Wunderground v.1.15,2013-02-21 03:15:00,
2013-02-20 21:20:00,61.2,59.8,29.70,ESE,109,1.0,2.0,95,0.00,,,0.02,Wunderground v.1.15,2013-02-21 03:20:00,
2013-02-20 21:25:00,61.2,59.8,29.70,East,87,1.0,2.0,95,0.00,,,0.02,Wunderground v.1.15,2013-02-21 03:25:00,
2013-02-20 21:30:00,61.3,59.9,29.70,NE,55,1.0,1.0,95,0.00,,,0.02,Wunderground v.1.15,2013-02-21 03:30:00,
2013-02-20 21:35:00,61.4,60.0,29.70,East,93,1.0,1.0,95,0.00,,,0.02,Wunderground v.1.15,2013-02-21 03:35:00,
2013-02-20 21:40:00,61.5,60.1,29.70,ENE,68,1.0,2.0,95,0.00,,,0.02,Wunderground v.1.15,2013-02-21 03:40:00,
2013-02-20 21:50:00,61.7,60.3,29.69,ESE,103,1.0,2.0,95,0.00,,,0.02,Wunderground v.1.15,2013-02-21 03:50:00,
2013-02-20 21:55:00,61.9,60.5,29.69,ESE,111,2.0,2.0,95,0.00,,,0.02,Wunderground v.1.15,2013-02-21 03:55:00,
2013-02-20 22:00:00,62.0,60.6,29.69,East,96,2.0,2.0,95,0.00,,,0.02,Wunderground v.1.15,2013-02-21 04:00:00,
2013-02-20 22:05:00,62.1,60.7,29.69,East,91,1.0,2.0,95,0.00,,,0.02,Wunderground v.1.15,2013-02-21 04:05:00,
2013-02-20 22:15:00,62.3,60.8,29.69,West,271,1.0,3.0,95,0.00,,,0.02,Wunderground v.1.15,2013-02-21 04:15:00,
2013-02-20 22:20:00,62.5,61.0,29.68,ESE,116,2.0,2.0,95,0.00,,,0.02,Wunderground v.1.15,2013-02-21 04:20:00,
2013-02-20 22:25:00,62.5,61.0,29.68,ESE,102,2.0,2.0,95,0.00,,,0.03,Wunderground v.1.15,2013-02-21 04:25:00,
2013-02-20 22:30:00,62.6,61.1,29.67,East,101,1.0,2.0,95,0.00,,,0.03,Wunderground v.1.15,2013-02-21 04:30:00,
2013-02-20 22:35:00,62.6,61.1,29.67,ESE,122,1.0,3.0,95,0.00,,,0.03,Wunderground v.1.15,2013-02-21 04:35:00,
2013-02-20 22:40:00,62.8,61.3,29.67,ESE,102,1.0,1.0,95,0.00,,,0.03,Wunderground v.1.15,2013-02-21 04:40:00,
2013-02-20 22:45:00,62.8,61.3,29.67,ENE,65,1.0,1.0,95,0.00,,,0.03,Wunderground v.1.15,2013-02-21 04:45:00,
2013-02-20 22:55:00,63.0,61.8,29.67,SE,130,1.0,4.0,96,0.00,,,0.03,Wunderground v.1.15,2013-02-21 04:55:00,
2013-02-20 23:00:00,63.1,61.9,29.66,ENE,71,1.0,2.0,96,0.00,,,0.03,Wunderground v.1.15,2013-02-21 05:00:00,
2013-02-20 23:05:00,63.1,61.9,29.67,SE,132,1.0,2.0,96,0.00,,,0.03,Wunderground v.1.15,2013-02-21 05:05:00,
2013-02-20 23:10:00,63.1,61.9,29.66,ENE,76,1.0,1.0,96,0.00,,,0.04,Wunderground v.1.15,2013-02-21 05:10:00,
2013-02-20 23:15:00,63.0,61.8,29.66,ESE,121,1.0,1.0,96,0.00,,,0.04,Wunderground v.1.15,2013-02-21 05:15:00,
2013-02-20 23:20:00,63.0,61.8,29.66,ESE,102,1.0,4.0,96,0.00,,,0.04,Wunderground v.1.15,2013-02-21 05:20:00,
2013-02-20 23:25:00,62.9,61.7,29.66,SE,125,1.0,4.0,96,0.00,,,0.04,Wunderground v.1.15,2013-02-21 05:25:00,
2013-02-20 23:30:00,62.8,61.6,29.65,South,190,1.0,2.0,96,0.00,,,0.04,Wunderground v.1.15,2013-02-21 05:30:00,
2013-02-20 23:35:00,62.8,61.6,29.65,ENE,65,1.0,2.0,96,0.00,,,0.04,Wunderground v.1.15,2013-02-21 05:35:00,
2013-02-20 23:40:00,62.8,61.6,29.64,ESE,117,1.0,1.0,96,0.00,,,0.04,Wunderground v.1.15,2013-02-21 05:40:00,
2013-02-20 23:45:00,62.9,61.7,29.65,NE,53,1.0,1.0,96,0.00,,,0.04,Wunderground v.1.15,2013-02-21 05:45:00,
2013-02-20 23:50:00,62.9,61.7,29.64,East,83,1.0,1.0,96,0.00,,,0.04,Wunderground v.1.15,2013-02-21 05:50:00,